Starlink 33669

operational
NORAD ID: 63283 Int'l Des: 2025-053 Owner: SPXS Country: US Constellation: starlink
LEOCIRCULAR

关于 Starlink 33669

正在加载描述...

实时位置

正在加载3D地球...

即将过境

高度历史

Altitude vs Time

uPlot chart will show altitude changes over time

两行轨道根数

1 63283U 25053U 25306.09126249 .00027158 00000-0 99223-3 0 9997
2 63283 43.0029 241.9799 0001500 224.2204 135.8528 15.27597891 36684
Epoch: Nov 2, 2025 • Age: 31 hours

当前状态

高度 495.3 km
速度 7.62 km/s
星下点 -43.16°S, 35.46°W
发射日期 Mar 15, 2025
运行时间 0.6 years
类型 internet

技术详情

分类 Payload
质量 575.00 kg
干质量 530.00 kg
总质量 575.00 kg
长度 0.30 m
直径 4.10 m
跨度 29.00 m
形状 Box + pan
制造商 SPXS
平台类型 Starlink V2MO
阶段状态 In Orbit
所有者/国家 SPXS/US

大型星座

Loading constellations...